When you browse on this site, cookies collect data to enhance your experience and personalize the content and advertising you see.
Visit our Privacy Policy to learn more. By continuing to use the site, you agree to this use of cookies and data.
  • In Hungary
  • List of Countries
  • For 7 days
  • Water Temperature
  • Satellite Maps
  • Weather Map
  • News
  • Weather Widgets
  • user-avatar
    Login

    Hourly Weather Potik

    Today, 22 July, Monday

    Time Temperature Precipitation Wind Pressure Humidity
    00:00 +17°C° 0 mm 3 mps 732 mmHg 95%
    01:00 +16°C° 0 mm 3 mps 732 mmHg 95%
    02:00 +16°C° 0 mm 3 mps 733 mmHg 96%
    03:00 +16°C° 0 mm 3 mps 733 mmHg 96%
    04:00 +17°C° 0 mm 3 mps 733 mmHg 97%
    05:00 +17°C° 0 mm 3 mps 733 mmHg 97%
    06:00 +17°C° 0 mm 3 mps 733 mmHg 94%
    07:00 +18°C° 0 mm 4 mps 733 mmHg 91%
    08:00 +19°C° 0 mm 4 mps 733 mmHg 88%
    09:00 +20°C° 0.2 mm 4 mps 733 mmHg 83%
    10:00 +22°C° 0.2 mm 5 mps 733 mmHg 78%
    11:00 +23°C° 0.2 mm 5 mps 733 mmHg 73%
    12:00 +23°C° 0.2 mm 5 mps 733 mmHg 72%
    13:00 +23°C° 0.2 mm 5 mps 733 mmHg 71%
    14:00 +23°C° 0.2 mm 5 mps 733 mmHg 70%
    15:00 +23°C° 0.2 mm 5 mps 733 mmHg 71%
    16:00 +23°C° 0.2 mm 5 mps 733 mmHg 72%
    17:00 +22°C° 0.2 mm 5 mps 733 mmHg 73%
    18:00 +21°C° 0 mm 4 mps 733 mmHg 76%
    19:00 +19°C° 0 mm 3 mps 733 mmHg 78%
    20:00 +18°C° 0 mm 2 mps 732 mmHg 81%
    21:00 +17°C° 0 mm 2 mps 732 mmHg 82%
    22:00 +17°C° 0 mm 2 mps 732 mmHg 83%
    23:00 +16°C° 0 mm 2 mps 733 mmHg 84%

    Tomorrow, 23 July, Tuesday

    Time Temperature Precipitation Wind Pressure Humidity
    00:00 +16°C° 0.3 mm 2 mps 732 mmHg 87%
    01:00 +16°C° 0.3 mm 1 mps 732 mmHg 89%
    02:00 +16°C° 0.3 mm 1 mps 732 mmHg 91%
    03:00 +16°C° 0.7 mm 1 mps 732 mmHg 92%
    04:00 +16°C° 0.7 mm 1 mps 732 mmHg 93%
    05:00 +16°C° 0.7 mm 1 mps 732 mmHg 95%
    06:00 +16°C° 0.7 mm 2 mps 732 mmHg 91%
    07:00 +17°C° 0.7 mm 2 mps 732 mmHg 87%
    08:00 +18°C° 0.7 mm 3 mps 732 mmHg 83%
    09:00 +19°C° 0.4 mm 3 mps 732 mmHg 79%
    10:00 +19°C° 0.4 mm 3 mps 732 mmHg 75%
    11:00 +20°C° 0.4 mm 3 mps 732 mmHg 71%
    12:00 +20°C° 0.3 mm 4 mps 732 mmHg 71%
    13:00 +21°C° 0.3 mm 4 mps 731 mmHg 71%
    14:00 +21°C° 0.3 mm 4 mps 731 mmHg 71%
    15:00 +21°C° 0.3 mm 5 mps 731 mmHg 72%
    16:00 +21°C° 0.3 mm 5 mps 731 mmHg 72%
    17:00 +21°C° 0.3 mm 5 mps 731 mmHg 73%
    18:00 +19°C° 0 mm 4 mps 731 mmHg 78%
    19:00 +18°C° 0 mm 4 mps 731 mmHg 83%
    20:00 +17°C° 0 mm 3 mps 730 mmHg 88%
    21:00 +16°C° 0 mm 3 mps 731 mmHg 90%
    22:00 +14°C° 0 mm 3 mps 731 mmHg 93%
    23:00 +14°C° 0 mm 3 mps 731 mmHg 95%

    Day after tomorrow, 24 July, Wednesday

    Time Temperature Precipitation Wind Pressure Humidity
    00:00 +13°C° 0 mm 4 mps 731 mmHg 95%
    01:00 +13°C° 0 mm 4 mps 731 mmHg 96%
    02:00 +13°C° 0 mm 4 mps 731 mmHg 97%
    03:00 +12°C° 0 mm 4 mps 731 mmHg 97%
    04:00 +12°C° 0 mm 3 mps 731 mmHg 98%
    05:00 +12°C° 0 mm 3 mps 731 mmHg 98%
    06:00 +13°C° 0 mm 3 mps 731 mmHg 95%
    07:00 +14°C° 0 mm 4 mps 731 mmHg 92%
    08:00 +17°C° 0 mm 4 mps 731 mmHg 89%
    09:00 +18°C° 0 mm 4 mps 731 mmHg 84%
    10:00 +19°C° 0 mm 4 mps 731 mmHg 78%
    11:00 +21°C° 0 mm 4 mps 731 mmHg 73%
    12:00 +21°C° 0 mm 5 mps 731 mmHg 70%
    13:00 +22°C° 0 mm 5 mps 731 mmHg 67%
    14:00 +23°C° 0 mm 5 mps 731 mmHg 65%
    15:00 +23°C° 0.1 mm 5 mps 731 mmHg 67%
    16:00 +22°C° 0.1 mm 5 mps 730 mmHg 70%
    17:00 +22°C° 0.1 mm 5 mps 730 mmHg 73%
    18:00 +21°C° 0 mm 4 mps 730 mmHg 78%
    19:00 +20°C° 0 mm 4 mps 731 mmHg 83%
    20:00 +18°C° 0 mm 3 mps 731 mmHg 88%
    21:00 +18°C° 0 mm 3 mps 731 mmHg 89%
    22:00 +17°C° 0 mm 3 mps 731 mmHg 91%
    23:00 +16°C° 0 mm 2 mps 731 mmHg 93%

    25 July, Thursday

    Time Temperature Precipitation Wind Pressure Humidity
    00:00 +16°C° 0 mm 2 mps 732 mmHg 93%
    01:00 +16°C° 0 mm 2 mps 732 mmHg 93%
    02:00 +15°C° 0 mm 2 mps 732 mmHg 94%
    03:00 +15°C° 0 mm 2 mps 732 mmHg 94%
    04:00 +15°C° 0 mm 2 mps 732 mmHg 94%
    05:00 +15°C° 0 mm 2 mps 732 mmHg 94%
    06:00 +16°C° 0 mm 2 mps 732 mmHg 91%
    07:00 +18°C° 0 mm 3 mps 732 mmHg 88%
    08:00 +19°C° 0 mm 3 mps 732 mmHg 85%
    09:00 +20°C° 0.1 mm 4 mps 732 mmHg 81%
    10:00 +21°C° 0.1 mm 4 mps 732 mmHg 77%
    11:00 +23°C° 0.1 mm 4 mps 732 mmHg 72%
    12:00 +23°C° 0.2 mm 4 mps 732 mmHg 70%
    13:00 +25°C° 0.2 mm 4 mps 732 mmHg 67%
    14:00 +25°C° 0.2 mm 5 mps 732 mmHg 65%
    15:00 +25°C° 0.1 mm 5 mps 732 mmHg 65%
    16:00 +25°C° 0.1 mm 5 mps 732 mmHg 66%
    17:00 +25°C° 0.1 mm 5 mps 732 mmHg 66%
    18:00 +22°C° 0 mm 4 mps 732 mmHg 71%
    19:00 +21°C° 0 mm 4 mps 732 mmHg 76%
    20:00 +19°C° 0 mm 3 mps 732 mmHg 81%
    21:00 +18°C° 0 mm 3 mps 732 mmHg 82%
    22:00 +17°C° 0 mm 2 mps 732 mmHg 83%
    23:00 +16°C° 0 mm 2 mps 732 mmHg 84%

    26 July, Friday

    Time Temperature Precipitation Wind Pressure Humidity
    00:00 +16°C° 0 mm 2 mps 732 mmHg 85%
    01:00 +16°C° 0 mm 2 mps 732 mmHg 86%
    02:00 +16°C° 0 mm 2 mps 732 mmHg 87%
    03:00 +14°C° 0 mm 3 mps 731 mmHg 89%
    04:00 +14°C° 0 mm 3 mps 731 mmHg 91%
    05:00 +14°C° 0 mm 3 mps 731 mmHg 93%
    06:00 +16°C° 0 mm 3 mps 731 mmHg 89%
    07:00 +18°C° 0 mm 4 mps 731 mmHg 85%
    08:00 +19°C° 0 mm 4 mps 731 mmHg 82%
    09:00 +20°C° 0 mm 4 mps 732 mmHg 79%
    10:00 +22°C° 0 mm 5 mps 732 mmHg 76%
    11:00 +23°C° 0 mm 5 mps 732 mmHg 74%
    12:00 +23°C° 0.2 mm 5 mps 732 mmHg 72%
    13:00 +25°C° 0.2 mm 4 mps 731 mmHg 71%
    14:00 +25°C° 0.2 mm 4 mps 731 mmHg 69%
    15:00 +25°C° 0 mm 4 mps 731 mmHg 69%
    16:00 +25°C° 0 mm 4 mps 731 mmHg 69%
    17:00 +26°C° 0 mm 3 mps 731 mmHg 69%
    18:00 +24°C° 0.1 mm 3 mps 731 mmHg 75%
    19:00 +22°C° 0.1 mm 3 mps 731 mmHg 81%
    20:00 +20°C° 0.1 mm 3 mps 731 mmHg 87%
    21:00 +20°C° 0 mm 2 mps 731 mmHg 88%
    22:00 +19°C° 0 mm 2 mps 731 mmHg 90%
    23:00 +18°C° 0 mm 2 mps 731 mmHg 92%

    27 July, Saturday

    Time Temperature Precipitation Wind Pressure Humidity
    00:00 +18°C° 0 mm 2 mps 731 mmHg 92%
    01:00 +19°C° 0 mm 1 mps 731 mmHg 92%
    02:00 +18°C° 0 mm 1 mps 731 mmHg 93%
    03:00 +18°C° 0 mm 1 mps 730 mmHg 93%
    04:00 +18°C° 0 mm 1 mps 730 mmHg 94%
    05:00 +18°C° 0 mm 1 mps 730 mmHg 94%
    06:00 +18°C° 0 mm 2 mps 730 mmHg 91%
    07:00 +19°C° 0 mm 2 mps 731 mmHg 88%
    08:00 +21°C° 0 mm 2 mps 731 mmHg 85%
    09:00 +22°C° 0 mm 3 mps 731 mmHg 79%
    10:00 +24°C° 0 mm 3 mps 731 mmHg 73%
    11:00 +25°C° 0 mm 3 mps 731 mmHg 67%
    12:00 +26°C° 0 mm 3 mps 731 mmHg 64%
    13:00 +26°C° 0 mm 3 mps 730 mmHg 61%
    14:00 +27°C° 0 mm 3 mps 730 mmHg 58%
    15:00 +27°C° 0 mm 3 mps 730 mmHg 59%
    16:00 +27°C° 0 mm 3 mps 730 mmHg 60%
    17:00 +26°C° 0 mm 3 mps 729 mmHg 62%
    18:00 +25°C° 0.1 mm 2 mps 729 mmHg 69%
    19:00 +23°C° 0.1 mm 2 mps 729 mmHg 75%
    20:00 +21°C° 0.1 mm 2 mps 729 mmHg 82%
    21:00 +20°C° 0 mm 2 mps 729 mmHg 84%
    22:00 +20°C° 0 mm 1 mps 729 mmHg 86%
    23:00 +20°C° 0 mm 1 mps 730 mmHg 88%
    Show more